,

(GMT )
Al Udeid

Weather History for KQIR - June, 2013

Change the Weather History Date:

Sunday, June 23, 2013

  Actual Average Record
Temperature  
Mean Temperature 97 °F -  
Max Temperature 111 °F - - ()
Min Temperature 83 °F - - ()
Cooling Degree Days 32    
Growing Degree Days 47 (Base 50)    
Moisture  
Dew Point 46 °F    
Average Humidity 22    
Maximum Humidity 54    
Minimum Humidity 6    
Precipitation  
Precipitation 0.00 in - - ()
Sea Level Pressure  
Sea Level Pressure 29.50 in    
Wind  
Wind Speed 13 mph ()    
Max Wind Speed 30 mph    
Max Gust Speed 34 mph    
Visibility 6.2 miles    
Events      
T = Trace of Precipitation, MM = Missing Value Source: Averaged Metar Reports

Daily Weather History Graph

Daily Weather History Graph

Search for Another Location

Airport or City:

Trip Planner

Search our weather history database for the weather conditions in past years. The results will help you decide how hot, cold, wet, or windy it might be!

Date:

Astronomy

Jun. 23, 2013 Rise Set
Actual Time 4:45 AM AST 6:28 PM AST
Civil Twilight 4:19 AM AST 6:54 PM AST
Nautical Twilight 3:48 AM AST 7:25 PM AST
Astronomical Twilight 3:16 AM AST 7:57 PM AST
Moon 6:25 PM AST (6/23) 4:31 AM AST (6/23)
Length of Visible Light 14h 34m
Length of Day
13h 42m
Full, 100% of the Moon is Illuminated
Jun 23
Full
Jun 23
Full
Jun 30
Last Quarter
Jul 8
New
Jul 16
First Quarter

Hourly Weather History & Observations

Time (AST) Temp. Heat Index Dew Point Humidity Pressure Visibility Wind Dir Wind Speed Gust Speed Precip Events Conditions
12:55 AM 84.2 °F - 49.5 °F 30% 29.49 in 6.2 mi West 10.4 mph - N/A   Clear
1:55 AM 84.0 °F 82.6 °F 53.2 °F 35% 29.48 in 6.2 mi West 10.4 mph - N/A   Clear
2:55 AM 83.3 °F - 52.7 °F 35% 29.47 in 6.2 mi West 9.2 mph - N/A   Clear
3:55 AM 84.6 °F - 51.3 °F 32% 29.48 in 6.2 mi WNW 10.4 mph - N/A   Clear
4:55 AM 85.1 °F 85.0 °F 60.3 °F 43% 29.50 in 6.2 mi NNW 12.7 mph - N/A   Clear
5:55 AM 84.4 °F 86.6 °F 66.0 °F 54% 29.52 in 6.2 mi NNW 10.4 mph - N/A   Clear
6:55 AM 89.1 °F 92.5 °F 67.6 °F 49% 29.52 in 6.2 mi NW 9.2 mph - N/A   Clear
7:55 AM 97.0 °F 95.3 °F 55.4 °F 25% 29.54 in 6.2 mi NW 12.7 mph - N/A   Clear
8:55 AM 101.8 °F - 51.6 °F 19% 29.54 in 6.2 mi North 21.9 mph - N/A   Clear
9:55 AM 106.9 °F - 39.7 °F 10% 29.53 in 6.2 mi North 24.2 mph 29.9 mph N/A   Clear
10:55 AM 109.8 °F - 33.4 °F 7% 29.52 in 6.2 mi North 23.0 mph 31.1 mph N/A   Clear
11:55 AM 111.2 °F - 30.7 °F 6% 29.51 in 6.2 mi NNW 27.6 mph 34.5 mph N/A   Unknown
12:55 PM 110.8 °F - 37.6 °F 8% 29.50 in 6.2 mi North 25.3 mph 31.1 mph N/A   Clear
1:55 PM 110.8 °F - 30.4 °F 6% 29.48 in 6.2 mi North 24.2 mph 33.4 mph N/A   Clear
2:55 PM 109.9 °F - 29.8 °F 6% 29.47 in 6.2 mi North 20.7 mph 34.5 mph N/A   Clear
3:55 PM 109.2 °F - 33.1 °F 7% 29.47 in 6.2 mi North 27.6 mph 32.2 mph N/A   Clear
4:55 PM 106.7 °F - 34.5 °F 8% 29.47 in 6.2 mi North 29.9 mph - N/A   Clear
5:55 PM 103.6 °F - 34.5 °F 9% 29.48 in 6.2 mi North 23.0 mph 29.9 mph N/A   Clear
6:55 PM 99.3 °F - 41.0 °F 13% 29.50 in 6.2 mi North 17.3 mph - N/A   Clear
7:55 PM 94.3 °F - 49.3 °F 21% 29.51 in 6.2 mi NNW 10.4 mph - N/A   Clear
8:55 PM 90.9 °F - 48.9 °F 24% 29.52 in 6.2 mi NNW 9.2 mph - N/A   Clear
9:55 PM 88.7 °F - 48.6 °F 25% 29.52 in 6.2 mi NW 6.9 mph - N/A   Clear
10:55 PM 86.2 °F - 50.0 °F 29% 29.51 in 6.2 mi Calm Calm - N/A   Clear
11:55 PM 83.7 °F - 50.7 °F 32% 29.50 in 6.2 mi West 4.6 mph - N/A   Clear